| time (UTC) | temp C | wind direction | speed KPH | gust KPH | rain 1hr cm | rain 24hr cm | rain mn cm | humidity % | barometer mb |
| 20260504033537 | 22 | 113 | 8.0 | 16.1 | 0.00 | 0.00 | 0.00 | 49 | 1015.7 |
| 20260504033046 | 22 | 144 | 8.0 | 14.5 | 0.00 | 0.00 | 0.00 | 49 | 1015.6 |
| 20260504032535 | 22 | 118 | 8.0 | 14.5 | 0.00 | 0.00 | 0.00 | 49 | 1015.6 |
| 20260504032037 | 22 | 130 | 8.0 | 16.1 | 0.00 | 0.00 | 0.00 | 48 | 1015.8 |
| 20260504031545 | 22 | 132 | 8.0 | 16.1 | 0.00 | 0.00 | 0.00 | 48 | 1015.9 |
| 20260504031037 | 22 | 148 | 8.0 | 16.1 | 0.00 | 0.00 | 0.00 | 48 | 1016.0 |
| 20260504030534 | 22 | 151 | 6.4 | 16.1 | 0.00 | 0.00 | 0.00 | 47 | 1016.0 |
| 20260504030045 | 22 | 132 | 8.0 | 16.1 | 0.00 | 0.00 | 0.00 | 47 | 1015.8 |
| 20260504025536 | 22 | 148 | 9.7 | 17.7 | 0.00 | 0.00 | 0.00 | 47 | 1015.8 |
| 20260504025038 | 22 | 146 | 9.7 | 17.7 | 0.00 | 0.00 | 0.00 | 47 | 1015.8 |
| 20260504024548 | 22 | 190 | 9.7 | 17.7 | 0.00 | 0.00 | 0.00 | 46 | 1015.8 |
| 20260504024035 | 23 | 159 | 8.0 | 16.1 | 0.00 | 0.00 | 0.00 | 46 | 1015.7 |
| 20260504023535 | 23 | 145 | 8.0 | 19.3 | 0.00 | 0.00 | 0.00 | 46 | 1015.8 |
| 20260504023048 | 23 | 147 | 9.7 | 19.3 | 0.00 | 0.00 | 0.00 | 46 | 1015.8 |
| 20260504022542 | 23 | 143 | 8.0 | 24.1 | 0.00 | 0.00 | 0.00 | 45 | 1015.6 |
| 20260504022036 | 23 | 130 | 11.3 | 24.1 | 0.00 | 0.00 | 0.00 | 45 | 1015.6 |
| 20260504021551 | 23 | 154 | 9.7 | 19.3 | 0.00 | 0.00 | 0.00 | 45 | 1015.7 |
| 20260504021035 | 23 | 146 | 11.3 | 19.3 | 0.00 | 0.00 | 0.00 | 44 | 1015.6 |
| 20260504020535 | 23 | 153 | 8.0 | 16.1 | 0.00 | 0.00 | 0.00 | 44 | 1015.6 |
| 20260504020049 | 23 | 125 | 9.7 | 17.7 | 0.00 | 0.00 | 0.00 | 44 | 1015.4 |
| 20260504015535 | 23 | 157 | 8.0 | 17.7 | 0.00 | 0.00 | 0.00 | 44 | 1015.3 |
| 20260504015035 | 23 | 134 | 9.7 | 22.5 | 0.00 | 0.00 | 0.00 | 44 | 1015.3 |
| 20260504014600 | 23 | 146 | 9.7 | 22.5 | 0.00 | 0.00 | 0.00 | 43 | 1015.2 |
| 20260504014034 | 23 | 154 | 11.3 | 20.9 | 0.00 | 0.00 | 0.00 | 44 | 1015.1 |
| 20260504013534 | 23 | 149 | 9.7 | 20.9 | 0.00 | 0.00 | 0.00 | 43 | 1015.1 |
| 20260504013049 | 23 | 140 | 11.3 | 20.9 | 0.00 | 0.00 | 0.00 | 43 | 1015.2 |
| 20260504012539 | 23 | 134 | 8.0 | 17.7 | 0.00 | 0.00 | 0.00 | 43 | 1015.3 |
| 20260504012035 | 24 | 153 | 9.7 | 22.5 | 0.00 | 0.00 | 0.00 | 42 | 1015.3 |
| 20260504011548 | 24 | 145 | 11.3 | 22.5 | 0.00 | 0.00 | 0.00 | 42 | 1015.4 |
| 20260504011036 | 24 | 120 | 11.3 | 20.9 | 0.00 | 0.00 | 0.00 | 41 | 1015.3 |
| 20260504010536 | 24 | 148 | 11.3 | 22.5 | 0.00 | 0.00 | 0.00 | 41 | 1015.3 |
| 20260504010054 | 24 | 157 | 12.9 | 22.5 | 0.00 | 0.00 | 0.00 | 41 | 1015.3 |
| 20260504005537 | 24 | 152 | 11.3 | 22.5 | 0.00 | 0.00 | 0.00 | 41 | 1015.3 |
| 20260504005035 | 25 | 150 | 14.5 | 25.7 | 0.00 | 0.00 | 0.00 | 41 | 1015.4 |
| 20260504004552 | 25 | 135 | 11.3 | 25.7 | 0.00 | 0.00 | 0.00 | 41 | 1015.4 |
| 20260504004036 | 25 | 155 | 14.5 | 25.7 | 0.00 | 0.00 | 0.00 | 40 | 1015.4 |
| 20260504003538 | 25 | 146 | 16.1 | 25.7 | 0.00 | 0.00 | 0.00 | 40 | 1015.3 |
| 20260504003055 | 25 | 138 | 17.7 | 25.7 | 0.00 | 0.00 | 0.00 | 40 | 1015.3 |
| 20260504002535 | 25 | 157 | 14.5 | 29.0 | 0.00 | 0.00 | 0.00 | 40 | 1015.4 |
| 20260504002035 | 25 | 136 | 14.5 | 29.0 | 0.00 | 0.00 | 0.00 | 40 | 1015.4 |
| 20260504001602 | 25 | 148 | 17.7 | 29.0 | 0.00 | 0.00 | 0.00 | 40 | 1015.2 |
| 20260504001038 | 25 | 157 | 14.5 | 27.4 | 0.00 | 0.00 | 0.00 | 40 | 1015.2 |
| 20260504000538 | 25 | 136 | 17.7 | 27.4 | 0.00 | 0.00 | 0.00 | 40 | 1015.4 |
| 20260504000108 | 25 | 122 | 12.9 | 30.6 | 0.00 | 0.00 | 0.00 | 41 | 1015.4 |
| 20260503235538 | 25 | 158 | 17.7 | 30.6 | 0.00 | 0.00 | 0.00 | 40 | 1015.5 |
| 20260503235040 | 25 | 178 | 14.5 | 27.4 | 0.00 | 0.00 | 0.00 | 41 | 1015.5 |
| 20260503234552 | 25 | 178 | 16.1 | 27.4 | 0.00 | 0.00 | 0.00 | 41 | 1015.4 |
| 20260503234039 | 25 | 148 | 14.5 | 27.4 | 0.00 | 0.00 | 0.00 | 40 | 1015.5 |
| 20260503233537 | 26 | 142 | 16.1 | 24.1 | 0.00 | 0.00 | 0.00 | 41 | 1015.7 |
| 20260503233048 | 26 | 156 | 14.5 | 24.1 | 0.00 | 0.00 | 0.00 | 41 | 1015.6 |
| 20260503232537 | 26 | 137 | 16.1 | 25.7 | 0.00 | 0.00 | 0.00 | 40 | 1015.5 |
| 20260503232037 | 26 | 154 | 14.5 | 29.0 | 0.00 | 0.00 | 0.00 | 41 | 1015.5 |
| 20260503231548 | 26 | 130 | 14.5 | 29.0 | 0.00 | 0.00 | 0.00 | 41 | 1015.5 |
| 20260503231038 | 26 | 169 | 14.5 | 29.0 | 0.00 | 0.00 | 0.00 | 41 | 1015.6 |
| 20260503230537 | 26 | 183 | 16.1 | 30.6 | 0.00 | 0.00 | 0.00 | 40 | 1015.7 |
| 20260503230047 | 26 | 170 | 14.5 | 30.6 | 0.00 | 0.00 | 0.00 | 42 | 1015.7 |
| 20260503225538 | 26 | 143 | 17.7 | 29.0 | 0.00 | 0.00 | 0.00 | 40 | 1015.6 |
| 20260503225035 | 26 | 134 | 14.5 | 24.1 | 0.00 | 0.00 | 0.00 | 41 | 1015.7 |
| 20260503224556 | 26 | 134 | 16.1 | 27.4 | 0.00 | 0.00 | 0.00 | 40 | 1015.8 |
| 20260503224035 | 26 | 170 | 16.1 | 29.0 | 0.00 | 0.00 | 0.00 | 40 | 1015.9 |
| 20260503223534 | 26 | 156 | 17.7 | 29.0 | 0.00 | 0.00 | 0.00 | 39 | 1015.8 |
| 20260503223050 | 26 | 134 | 16.1 | 25.7 | 0.00 | 0.00 | 0.00 | 40 | 1015.9 |
| 20260503222537 | 26 | 155 | 16.1 | 30.6 | 0.00 | 0.00 | 0.00 | 39 | 1015.9 |
| 20260503222040 | 26 | 140 | 19.3 | 30.6 | 0.00 | 0.00 | 0.00 | 39 | 1015.9 |
| 20260503221550 | 26 | 170 | 16.1 | 30.6 | 0.00 | 0.00 | 0.00 | 39 | 1015.8 |
| 20260503221036 | 26 | 162 | 16.1 | 33.8 | 0.00 | 0.00 | 0.00 | 39 | 1016.0 |
| 20260503220533 | 26 | 178 | 17.7 | 33.8 | 0.00 | 0.00 | 0.00 | 39 | 1016.0 |
| 20260503220052 | 26 | 142 | 12.9 | 32.2 | 0.00 | 0.00 | 0.00 | 38 | 1016.0 |
| 20260503215537 | 26 | 149 | 20.9 | 32.2 | 0.00 | 0.00 | 0.00 | 38 | 1016.1 |
| 20260503215036 | 26 | 148 | 11.3 | 29.0 | 0.00 | 0.00 | 0.00 | 40 | 1016.1 |
| 20260503214546 | 26 | 171 | 14.5 | 35.4 | 0.00 | 0.00 | 0.00 | 40 | 1016.2 |
| 20260503214034 | 26 | 149 | 20.9 | 35.4 | 0.00 | 0.00 | 0.00 | 38 | 1016.3 |
| 20260503213535 | 26 | 143 | 12.9 | 35.4 | 0.00 | 0.00 | 0.00 | 39 | 1016.4 |
| 20260503213048 | 26 | 144 | 17.7 | 35.4 | 0.00 | 0.00 | 0.00 | 37 | 1016.5 |
| 20260503212537 | 26 | 127 | 16.1 | 33.8 | 0.00 | 0.00 | 0.00 | 38 | 1016.5 |
| 20260503212037 | 26 | 165 | 17.7 | 33.8 | 0.00 | 0.00 | 0.00 | 38 | 1016.8 |
| 20260503211545 | 26 | 150 | 16.1 | 27.4 | 0.00 | 0.00 | 0.00 | 38 | 1017.0 |
| 20260503211033 | 26 | 178 | 14.5 | 29.0 | 0.00 | 0.00 | 0.00 | 38 | 1017.1 |
| 20260503210537 | 26 | 176 | 16.1 | 30.6 | 0.00 | 0.00 | 0.00 | 39 | 1017.3 |
| 20260503210042 | 26 | 118 | 16.1 | 33.8 | 0.00 | 0.00 | 0.00 | 39 | 1017.4 |
| 20260503205537 | 26 | 146 | 12.9 | 33.8 | 0.00 | 0.00 | 0.00 | 40 | 1017.6 |
| 20260503205035 | 26 | 155 | 14.5 | 29.0 | 0.00 | 0.00 | 0.00 | 39 | 1017.8 |
| 20260503204544 | 26 | 158 | 14.5 | 29.0 | 0.00 | 0.00 | 0.00 | 38 | 1017.7 |
| 20260503204036 | 26 | 128 | 12.9 | 29.0 | 0.00 | 0.00 | 0.00 | 39 | 1017.7 |
| 20260503203539 | 26 | 140 | 12.9 | 25.7 | 0.00 | 0.00 | 0.00 | 39 | 1017.9 |
| 20260503203049 | 26 | 155 | 16.1 | 25.7 | 0.00 | 0.00 | 0.00 | 38 | 1018.1 |
| 20260503202534 | 26 | 162 | 8.0 | 27.4 | 0.00 | 0.00 | 0.00 | 39 | 1018.1 |
| 20260503202034 | 26 | 174 | 16.1 | 29.0 | 0.00 | 0.00 | 0.00 | 38 | 1018.2 |
| 20260503201551 | 26 | 156 | 16.1 | 29.0 | 0.00 | 0.00 | 0.00 | 39 | 1018.4 |
| 20260503201038 | 26 | 166 | 12.9 | 27.4 | 0.00 | 0.00 | 0.00 | 36 | 1018.5 |
| 20260503200537 | 26 | 187 | 14.5 | 27.4 | 0.00 | 0.00 | 0.00 | 38 | 1018.8 |
| 20260503200050 | 26 | 200 | 12.9 | 29.0 | 0.00 | 0.00 | 0.00 | 38 | 1018.9 |
| 20260503195534 | 26 | 194 | 14.5 | 29.0 | 0.00 | 0.00 | 0.00 | 38 | 1019.0 |
| 20260503195034 | 26 | 180 | 11.3 | 24.1 | 0.00 | 0.00 | 0.00 | 37 | 1019.2 |
| 20260503194545 | 25 | 155 | 11.3 | 25.7 | 0.00 | 0.00 | 0.00 | 39 | 1019.3 |
| 20260503194035 | 25 | 129 | 12.9 | 25.7 | 0.00 | 0.00 | 0.00 | 38 | 1019.1 |
| 20260503193535 | 25 | 188 | 12.9 | 24.1 | 0.00 | 0.00 | 0.00 | 39 | 1019.2 |
| 20260503193047 | 25 | 170 | 14.5 | 29.0 | 0.00 | 0.00 | 0.00 | 39 | 1019.3 |
| 20260503192535 | 25 | 134 | 17.7 | 29.0 | 0.00 | 0.00 | 0.00 | 40 | 1019.4 |
| 20260503192034 | 25 | 116 | 12.9 | 27.4 | 0.00 | 0.00 | 0.00 | 39 | 1019.4 |
| 20260503191549 | 25 | 143 | 12.9 | 27.4 | 0.00 | 0.00 | 0.00 | 42 | 1019.4 |
| 20260503191036 | 25 | 160 | 12.9 | 27.4 | 0.00 | 0.00 | 0.00 | 40 | 1019.6 |
| 20260503190534 | 25 | 202 | 14.5 | 25.7 | 0.00 | 0.00 | 0.00 | 42 | 1019.6 |
| 20260503190052 | 25 | 138 | 12.9 | 25.7 | 0.00 | 0.00 | 0.00 | 42 | 1019.7 |
| 20260503185534 | 25 | 170 | 12.9 | 25.7 | 0.00 | 0.00 | 0.00 | 42 | 1019.9 |
| 20260503185036 | 24 | 166 | 16.1 | 32.2 | 0.00 | 0.00 | 0.00 | 41 | 1020.0 |
| 20260503184544 | 25 | 143 | 17.7 | 32.2 | 0.00 | 0.00 | 0.00 | 42 | 1020.1 |
| 20260503184034 | 25 | 191 | 12.9 | 25.7 | 0.00 | 0.00 | 0.00 | 44 | 1020.2 |
| 20260503183534 | 25 | 176 | 16.1 | 29.0 | 0.00 | 0.00 | 0.00 | 44 | 1020.3 |
| 20260503183102 | 24 | 161 | 12.9 | 29.0 | 0.00 | 0.00 | 0.00 | 43 | 1020.3 |
| 20260503182536 | 24 | 155 | 16.1 | 32.2 | 0.00 | 0.00 | 0.00 | 43 | 1020.3 |
| 20260503182035 | 24 | 165 | 11.3 | 32.2 | 0.00 | 0.00 | 0.00 | 45 | 1020.5 |
| 20260503181613 | 24 | 116 | 14.5 | 27.4 | 0.00 | 0.00 | 0.00 | 45 | 1020.4 |
| 20260503181035 | 24 | 196 | 14.5 | 29.0 | 0.00 | 0.00 | 0.00 | 46 | 1020.7 |
| 20260503180534 | 23 | 171 | 17.7 | 29.0 | 0.00 | 0.00 | 0.00 | 45 | 1020.8 |
| 20260503180045 | 23 | 147 | 14.5 | 24.1 | 0.00 | 0.00 | 0.00 | 47 | 1020.9 |
| 20260503175535 | 23 | 142 | 12.9 | 24.1 | 0.00 | 0.00 | 0.00 | 47 | 1021.0 |
| 20260503175034 | 23 | 164 | 11.3 | 22.5 | 0.00 | 0.00 | 0.00 | 49 | 1021.0 |
| 20260503174553 | 23 | 184 | 11.3 | 22.5 | 0.00 | 0.00 | 0.00 | 47 | 1021.1 |
| 20260503174034 | 23 | 147 | 12.9 | 32.2 | 0.00 | 0.00 | 0.00 | 45 | 1021.4 |
| 20260503173537 | 23 | 128 | 16.1 | 32.2 | 0.00 | 0.00 | 0.00 | 46 | 1021.4 |
| 20260503173054 | 23 | 126 | 12.9 | 30.6 | 0.00 | 0.00 | 0.00 | 47 | 1021.5 |
| 20260503172538 | 23 | 169 | 14.5 | 30.6 | 0.00 | 0.00 | 0.00 | 47 | 1021.6 |
| 20260503172038 | 23 | 145 | 12.9 | 25.7 | 0.00 | 0.00 | 0.00 | 46 | 1021.6 |
| 20260503171547 | 23 | 163 | 16.1 | 29.0 | 0.00 | 0.00 | 0.00 | 47 | 1021.8 |
| 20260503171037 | 23 | 161 | 14.5 | 29.0 | 0.00 | 0.00 | 0.00 | 48 | 1021.8 |
| 20260503170535 | 23 | 142 | 14.5 | 27.4 | 0.00 | 0.00 | 0.00 | 47 | 1021.9 |
| 20260503150537 | 20 | 115 | 4.8 | 12.9 | 0.00 | 0.00 | 0.00 | 62 | 1022.6 |
| 20260503131035 | 15 | 142 | 4.8 | 11.3 | 0.00 | 0.00 | 0.00 | 74 | 1022.6 |
| 20260503130535 | 15 | 134 | 3.2 | 11.3 | 0.00 | 0.00 | 0.00 | 75 | 1022.6 |
| 20260503110535 | 13 | 0 | 0.0 | 3.2 | 0.00 | 0.00 | 0.00 | 81 | 1021.7 |
| 20260503081549 | 15 | 0 | 1.6 | 6.4 | 0.00 | 0.00 | 0.00 | 76 | 1021.4 |
| 20260503081037 | 15 | 78 | 3.2 | 4.8 | 0.00 | 0.00 | 0.00 | 75 | 1021.4 |
| 20260503080538 | 15 | 0 | 1.6 | 9.7 | 0.00 | 0.00 | 0.00 | 74 | 1021.5 |
| 20260503072535 | 16 | 0 | 0.0 | 3.2 | 0.00 | 0.00 | 0.00 | 71 | 1021.8 |
| 20260503072037 | 16 | 129 | 0.0 | 3.2 | 0.00 | 0.00 | 0.00 | 71 | 1021.8 |
| 20260503071552 | 16 | 0 | 0.0 | 4.8 | 0.00 | 0.00 | 0.00 | 70 | 1021.8 |
| 20260503071036 | 16 | 0 | 0.0 | 6.4 | 0.00 | 0.00 | 0.00 | 70 | 1021.8 |
| 20260503070537 | 16 | 129 | 1.6 | 9.7 | 0.00 | 0.00 | 0.00 | 71 | 1021.6 |
| 20260503070111 | 16 | 149 | 3.2 | 11.3 | 0.00 | 0.00 | 0.00 | 70 | 1021.5 |
| 20260503060113 | 17 | 143 | 6.4 | 12.9 | 0.00 | 0.00 | 0.00 | 65 | 1021.5 |
| 20260503055039 | 17 | 129 | 4.8 | 11.3 | 0.00 | 0.00 | 0.00 | 65 | 1021.6 |
| 20260503054559 | 17 | 144 | 4.8 | 12.9 | 0.00 | 0.00 | 0.00 | 64 | 1021.7 |
| 20260503054038 | 17 | 137 | 6.4 | 12.9 | 0.00 | 0.00 | 0.00 | 64 | 1021.6 |
| 20260503053537 | 17 | 132 | 4.8 | 11.3 | 0.00 | 0.00 | 0.00 | 64 | 1021.5 |
| 20260503053043 | 17 | 143 | 4.8 | 11.3 | 0.00 | 0.00 | 0.00 | 64 | 1021.4 |
| 20260503052538 | 17 | 132 | 4.8 | 11.3 | 0.00 | 0.00 | 0.00 | 64 | 1021.4 |
| 20260503052035 | 17 | 146 | 4.8 | 11.3 | 0.00 | 0.00 | 0.00 | 64 | 1021.5 |
| 20260503051553 | 17 | 147 | 4.8 | 11.3 | 0.00 | 0.00 | 0.00 | 64 | 1021.5 |
| 20260503051035 | 17 | 139 | 3.2 | 9.7 | 0.00 | 0.00 | 0.00 | 63 | 1021.4 |
| 20260503050537 | 17 | 132 | 4.8 | 9.7 | 0.00 | 0.00 | 0.00 | 63 | 1021.4 |
| 20260503050049 | 18 | 150 | 3.2 | 9.7 | 0.00 | 0.00 | 0.00 | 63 | 1021.4 |
| 20260503045535 | 18 | 152 | 4.8 | 9.7 | 0.00 | 0.00 | 0.00 | 63 | 1021.5 |
| 20260503045034 | 18 | 144 | 4.8 | 11.3 | 0.00 | 0.00 | 0.00 | 63 | 1021.4 |
| 20260503044548 | 18 | 157 | 4.8 | 11.3 | 0.00 | 0.00 | 0.00 | 62 | 1021.2 |
| 20260503044035 | 18 | 144 | 4.8 | 11.3 | 0.00 | 0.00 | 0.00 | 62 | 1021.2 |
| 20260503043534 | 18 | 153 | 3.2 | 11.3 | 0.00 | 0.00 | 0.00 | 62 | 1021.4 |
| 20260503043052 | 18 | 138 | 3.2 | 11.3 | 0.00 | 0.00 | 0.00 | 61 | 1021.4 |
| 20260503042538 | 18 | 148 | 6.4 | 9.7 | 0.00 | 0.00 | 0.00 | 61 | 1021.4 |
| 20260503042038 | 18 | 134 | 3.2 | 8.0 | 0.00 | 0.00 | 0.00 | 61 | 1021.3 |
| 20260503041545 | 18 | 150 | 3.2 | 9.7 | 0.00 | 0.00 | 0.00 | 61 | 1021.1 |
| 20260503041040 | 18 | 136 | 3.2 | 9.7 | 0.00 | 0.00 | 0.00 | 61 | 1021.2 |
| 20260503040537 | 18 | 152 | 3.2 | 11.3 | 0.00 | 0.00 | 0.00 | 61 | 1021.1 |
| 20260503040049 | 18 | 156 | 3.2 | 11.3 | 0.00 | 0.00 | 0.00 | 61 | 1021.3 |
| 20260503035535 | 18 | 155 | 3.2 | 11.3 | 0.00 | 0.00 | 0.00 | 60 | 1021.2 |
| 20260503035038 | 18 | 171 | 4.8 | 11.3 | 0.00 | 0.00 | 0.00 | 60 | 1021.2 |
| 20260503034601 | 19 | 151 | 4.8 | 11.3 | 0.00 | 0.00 | 0.00 | 60 | 1021.1 |
| 20260503034038 | 19 | 156 | 4.8 | 11.3 | 0.00 | 0.00 | 0.00 | 59 | 1021.0 |